Showing default

COSMOS 84, 1574

Orbit data source: Space-Track

COSMOS 84, 1574 is a payload satellite owned by OKB-10 (CIS) in LEO that was launched on Fri, 03 Sep 1965 UTC via a KOSMOS 65S3 launch vehicle from the Tyuratam Missile And Space Complex (TTMTR). Payloads include a variety of satellites, spacecraft, and rockets equipped with specific instruments for various scientific and technological missions. These include communications satellites like Starlink; space stations such as the ISS; scientific satellites like the Hubble; Earth observation satellites from companies like Planet Labs, Umbra, and HawkEye 360; GPS; miniature CubeSats for education and research; and military/defense satellites.

Loading next visibility...
COSMOS 84 details
Identifier
1574, 1965-070E
Orbit
LEO
Last TLE update9 hours ago
Origin
Flag of CISOKB-10 (CIS)
ManufacturerOKB-10
MissionDefense Communications
Bus & MotorSTRELA-1 11F610, Unknown motor
Mass50 kg wet, 50 kg dry
Launch date (UTC)
1965-09-03 (59 years ago)
Launch vehicle
KOSMOS 65S3
Launch site
Tyuratam Missile And Space Complex (TTMTR)
Object type
Payload
Rocket body
Debris
Shape & HBRPoly, 0.8 m
Radar Cross Section0.731 m², Medium (>0.1 m² and < 1m²)

Expand to show TLE details & history

TLE from 9 hours ago
0 COSMOS 84
1  1574U 65070E   24356.12910201 -.00000080  00000-0  89485-4 0  9998
2  1574  56.0552  57.0290 0062010 239.7330 155.6402 12.37028691679678
Epoch: 2024-12-21T03:05Z
Definitive object data (Epoch: 2024-12-21T03:05:54.413Z)
Latitude28.99725°
Longitude-57.83916°
Altitude1,565.673 km
Speed7.068 km/s
True Right ascension05h 15m 17s
True Declination28° 51' 59"
Sunlit
Object was in full shadow at TLE epoch
Visualization TLE readout
Latitude-52.862°
Longitude161.56813°
Altitude1,490.347 km
Speed7.14 km/s
Apparent Right ascension21h 29m 43s
Apparent Declination-49° 26' 14"
Sunlit
Object is in daylight
Visualization observer readout
Local Sidereal Time11:03:36
Azimuth127.668° SE
Elevation-70.903°
Doppler factor1
Orbital elements
Apogee altitude1,568.019 km
Perigee altitude1,470.078 km
Semi-major axis7,897.186 km
Eccentricity0.006201
Inclination56.0552°
RAAN57.029°
Arg. of periapsis239.733°
True anomaly155.93123°
Mean anomaly155.6402°
Eccentric anomaly155.78592°
Mean motion3.09268 °/min
BSTAR0.000089485
Orbital period116.4 mins
Loading maneuver chart data...
Loading historical data...
Loading historical data...
Loading historical data...
Loading historical data...
Loading historical data...
Loading historical data...
Loading historical data...

COSMOS 84 Visibility forecast

Observer location: undefined°, undefined

Span
Click to sort rows by Start time (UTC) header in descending order
Start Az.
Max El. time (UTC)
Max El. Az.
Max El.
End time (UTC)
End Az.
17 mins2024-12-21 13:06:52.580Z319.658° NNW2024-12-21 13:14:52.580Z30.7° NE38.418°2024-12-21 13:23:52.580Z108.552° ESE
15 mins2024-12-21 15:09:52.580Z304.119° NW2024-12-21 15:16:52.580Z234.119° WSW39.239°2024-12-21 15:24:52.580Z161.839° S
8 mins2024-12-22 04:14:52.580Z137.119° SSE2024-12-22 04:18:52.580Z109.211° ESE15.419°2024-12-22 04:22:52.580Z82.365° E
17 mins2024-12-22 06:10:52.580Z208.928° SW2024-12-22 06:18:52.580Z126.098° SE43.238°2024-12-22 06:27:52.580Z48.902° ENE
16 mins2024-12-22 08:13:52.580Z265.417° W2024-12-22 08:20:52.580Z327.38° NNW35.245°2024-12-22 08:29:52.580Z42.326° NE
14 mins2024-12-22 10:18:52.580Z307.22° NW2024-12-22 10:25:52.580Z3.975° NNE26.069°2024-12-22 10:32:52.580Z55.361° ENE
|